Year,Month,Day,Hour,Minute,Value (Times are PST for temperature in C)
2013,08,05,00,00,18.30
2013,08,05,00,01,18.20
2013,08,05,00,02,18.20
2013,08,05,00,03,18.20
2013,08,05,00,04,18.20
2013,08,05,00,05,18.20
2013,08,05,00,06,18.20
2013,08,05,00,07,18.20
2013,08,05,00,08,18.20
2013,08,05,00,09,18.20
2013,08,05,00,10,18.20
2013,08,05,00,11,18.20
2013,08,05,00,12,18.10
2013,08,05,00,13,18.10
2013,08,05,00,14,18.10
2013,08,05,00,15,18.10
2013,08,05,00,16,18.10
2013,08,05,00,17,18.10
2013,08,05,00,18,18.10
2013,08,05,00,19,18.10
2013,08,05,00,20,18.10
2013,08,05,00,21,18.10
2013,08,05,00,22,18.10
2013,08,05,00,23,18.10
2013,08,05,00,24,18.10
2013,08,05,00,25,18.00
2013,08,05,00,26,18.00
2013,08,05,00,27,18.00
2013,08,05,00,28,18.00
2013,08,05,00,29,18.00
2013,08,05,00,30,18.00
2013,08,05,00,31,18.00
2013,08,05,00,32,17.90
2013,08,05,00,33,17.90
2013,08,05,00,34,17.90
2013,08,05,00,35,17.90
2013,08,05,00,36,17.90
2013,08,05,00,37,17.90
2013,08,05,00,38,17.90
2013,08,05,00,39,17.90
2013,08,05,00,40,17.90
2013,08,05,00,41,17.90
2013,08,05,00,42,17.90
2013,08,05,00,43,17.90
2013,08,05,00,44,17.90
2013,08,05,00,45,17.90
2013,08,05,00,46,17.90
2013,08,05,00,47,17.90
2013,08,05,00,48,17.80
2013,08,05,00,49,17.80
2013,08,05,00,50,17.80
2013,08,05,00,51,17.80
2013,08,05,00,52,17.80
2013,08,05,00,53,17.80
2013,08,05,00,54,17.80
2013,08,05,00,55,17.70
2013,08,05,00,56,17.70
2013,08,05,00,57,17.70
2013,08,05,00,58,17.70
2013,08,05,00,59,17.70
2013,08,05,01,00,17.70
2013,08,05,01,01,17.70
2013,08,05,01,02,17.60
2013,08,05,01,03,17.60
2013,08,05,01,04,17.60
2013,08,05,01,05,17.60
2013,08,05,01,06,17.60
2013,08,05,01,07,17.60
2013,08,05,01,08,17.60
2013,08,05,01,09,17.60
2013,08,05,01,10,17.60
2013,08,05,01,11,17.60
2013,08,05,01,12,17.60
2013,08,05,01,13,17.60
2013,08,05,01,14,17.50
2013,08,05,01,15,17.50
2013,08,05,01,16,17.50
2013,08,05,01,17,17.50
2013,08,05,01,18,17.50
2013,08,05,01,19,17.50
2013,08,05,01,20,17.50
2013,08,05,01,21,17.50
2013,08,05,01,22,17.40
2013,08,05,01,23,17.40
2013,08,05,01,24,17.40
2013,08,05,01,25,17.40
2013,08,05,01,26,17.40
2013,08,05,01,27,17.40
2013,08,05,01,28,17.40
2013,08,05,01,29,17.40
2013,08,05,01,30,17.40
2013,08,05,01,31,17.40
2013,08,05,01,32,17.30
2013,08,05,01,33,17.30
2013,08,05,01,34,17.30
2013,08,05,01,35,17.30
2013,08,05,01,36,17.30
2013,08,05,01,37,17.30
2013,08,05,01,38,17.30
2013,08,05,01,39,17.30
2013,08,05,01,40,17.30
2013,08,05,01,41,17.30
2013,08,05,01,42,17.30
2013,08,05,01,43,17.30
2013,08,05,01,44,17.30
2013,08,05,01,45,17.30
2013,08,05,01,46,17.30
2013,08,05,01,47,17.30
2013,08,05,01,48,17.30
2013,08,05,01,49,17.20
2013,08,05,01,50,17.20
2013,08,05,01,51,17.20
2013,08,05,01,52,17.20
2013,08,05,01,53,17.20
2013,08,05,01,54,17.20
2013,08,05,01,55,17.20
2013,08,05,01,56,17.20
2013,08,05,01,57,17.10
2013,08,05,01,58,17.10
2013,08,05,01,59,17.10
2013,08,05,02,00,17.10
2013,08,05,02,01,17.10
2013,08,05,02,02,17.10
2013,08,05,02,03,17.10
2013,08,05,02,04,17.10
2013,08,05,02,05,17.10
2013,08,05,02,06,17.10
2013,08,05,02,07,17.00
2013,08,05,02,08,17.00
2013,08,05,02,09,17.00
2013,08,05,02,10,17.00
2013,08,05,02,11,17.00
2013,08,05,02,12,17.00
2013,08,05,02,13,17.00
2013,08,05,02,14,17.00
2013,08,05,02,15,17.00
2013,08,05,02,16,17.00
2013,08,05,02,17,16.90
2013,08,05,02,18,16.90
2013,08,05,02,19,16.90
2013,08,05,02,20,16.90
2013,08,05,02,21,16.90
2013,08,05,02,22,16.90
2013,08,05,02,23,16.90
2013,08,05,02,24,16.90
2013,08,05,02,25,16.80
2013,08,05,02,26,16.80
2013,08,05,02,27,16.80
2013,08,05,02,28,16.80
2013,08,05,02,29,16.80
2013,08,05,02,30,16.80
2013,08,05,02,31,16.80
2013,08,05,02,32,16.80
2013,08,05,02,33,16.80
2013,08,05,02,34,16.80
2013,08,05,02,35,16.70
2013,08,05,02,36,16.70
2013,08,05,02,37,16.70
2013,08,05,02,38,16.70
2013,08,05,02,39,16.70
2013,08,05,02,40,16.60
2013,08,05,02,41,16.60
2013,08,05,02,42,16.60
2013,08,05,02,43,16.60
2013,08,05,02,44,16.60
2013,08,05,02,45,16.60
2013,08,05,02,46,16.60
2013,08,05,02,47,16.60
2013,08,05,02,48,16.60
2013,08,05,02,49,16.50
2013,08,05,02,50,16.50
2013,08,05,02,51,16.50
2013,08,05,02,52,16.40
2013,08,05,02,53,16.40
2013,08,05,02,54,16.40
2013,08,05,02,55,16.40
2013,08,05,02,56,16.40
2013,08,05,02,57,16.40
2013,08,05,02,58,16.40
2013,08,05,02,59,16.40
2013,08,05,03,00,16.40
2013,08,05,03,01,16.40
2013,08,05,03,02,16.40
2013,08,05,03,03,16.40
2013,08,05,03,04,16.40
2013,08,05,03,05,16.40
2013,08,05,03,06,16.30
2013,08,05,03,07,16.30
2013,08,05,03,08,16.30
2013,08,05,03,09,16.30
2013,08,05,03,10,16.30
2013,08,05,03,11,16.30
2013,08,05,03,12,16.30
2013,08,05,03,13,16.30
2013,08,05,03,14,16.20
2013,08,05,03,15,16.20
2013,08,05,03,16,16.20
2013,08,05,03,17,16.20
2013,08,05,03,18,16.20
2013,08,05,03,19,16.20
2013,08,05,03,20,16.20
2013,08,05,03,21,16.10
2013,08,05,03,22,16.10
2013,08,05,03,23,16.10
2013,08,05,03,24,16.10
2013,08,05,03,25,16.10
2013,08,05,03,26,16.10
2013,08,05,03,27,16.10
2013,08,05,03,28,16.10
2013,08,05,03,29,16.10
2013,08,05,03,30,16.10
2013,08,05,03,31,16.10
2013,08,05,03,32,16.10
2013,08,05,03,33,16.10
2013,08,05,03,34,16.10
2013,08,05,03,35,16.10
2013,08,05,03,36,16.10
2013,08,05,03,37,16.10
2013,08,05,03,38,16.10
2013,08,05,03,39,16.10
2013,08,05,03,40,16.10
2013,08,05,03,41,16.00
2013,08,05,03,42,16.00
2013,08,05,03,43,16.00
2013,08,05,03,44,16.00
2013,08,05,03,45,16.00
2013,08,05,03,46,16.00
2013,08,05,03,47,16.00
2013,08,05,03,48,16.00
2013,08,05,03,49,16.00
2013,08,05,03,50,16.00
2013,08,05,03,51,16.00
2013,08,05,03,52,16.00
2013,08,05,03,53,15.90
2013,08,05,03,54,15.90
2013,08,05,03,55,15.90
2013,08,05,03,56,15.80
2013,08,05,03,57,15.80
2013,08,05,03,58,15.80
2013,08,05,03,59,15.80
2013,08,05,04,00,15.80
2013,08,05,04,01,15.80
2013,08,05,04,02,15.80
2013,08,05,04,03,15.70
2013,08,05,04,04,15.70
2013,08,05,04,05,15.70
2013,08,05,04,06,15.70
2013,08,05,04,07,15.70
2013,08,05,04,08,15.70
2013,08,05,04,09,15.70
2013,08,05,04,10,15.70
2013,08,05,04,11,15.70
2013,08,05,04,12,15.70
2013,08,05,04,13,15.70
2013,08,05,04,14,15.70
2013,08,05,04,15,15.60
2013,08,05,04,16,15.60
2013,08,05,04,17,15.60
2013,08,05,04,18,15.60
2013,08,05,04,19,15.60
2013,08,05,04,20,15.60
2013,08,05,04,21,15.60
2013,08,05,04,22,15.60
2013,08,05,04,23,15.60
2013,08,05,04,24,15.60
2013,08,05,04,25,15.60
2013,08,05,04,26,15.70
2013,08,05,04,27,15.70
2013,08,05,04,28,15.70
2013,08,05,04,29,15.60
2013,08,05,04,30,15.70
2013,08,05,04,31,15.70
2013,08,05,04,32,15.70
2013,08,05,04,33,15.60
2013,08,05,04,34,15.60
2013,08,05,04,35,15.60
2013,08,05,04,36,15.60
2013,08,05,04,37,15.60
2013,08,05,04,38,15.60
2013,08,05,04,39,15.50
2013,08,05,04,40,15.50
2013,08,05,04,41,15.50
2013,08,05,04,42,15.50
2013,08,05,04,43,15.50
2013,08,05,04,44,15.40
2013,08,05,04,45,15.40
2013,08,05,04,46,15.40
2013,08,05,04,47,15.40
2013,08,05,04,48,15.40
2013,08,05,04,49,15.30
2013,08,05,04,50,15.30
2013,08,05,04,51,15.30
2013,08,05,04,52,15.30
2013,08,05,04,53,15.30
2013,08,05,04,54,15.30
2013,08,05,04,55,15.30
2013,08,05,04,56,15.30
2013,08,05,04,57,15.30
2013,08,05,04,58,15.30
2013,08,05,04,59,15.30
2013,08,05,05,00,15.30
2013,08,05,05,01,15.30
2013,08,05,05,02,15.30
2013,08,05,05,03,15.30
2013,08,05,05,04,15.30
2013,08,05,05,05,15.30
2013,08,05,05,06,15.30
2013,08,05,05,07,15.30
2013,08,05,05,08,15.30
2013,08,05,05,09,15.30
2013,08,05,05,10,15.40
2013,08,05,05,11,15.40
2013,08,05,05,12,15.40
2013,08,05,05,13,15.40
2013,08,05,05,14,15.40
2013,08,05,05,15,15.40
2013,08,05,05,16,15.40
2013,08,05,05,17,15.40
2013,08,05,05,18,15.40
2013,08,05,05,19,15.30
2013,08,05,05,20,15.30
2013,08,05,05,21,15.40
2013,08,05,05,22,15.40
2013,08,05,05,23,15.40
2013,08,05,05,24,15.40
2013,08,05,05,25,15.40
2013,08,05,05,26,15.40
2013,08,05,05,27,15.40
2013,08,05,05,28,15.40
2013,08,05,05,29,15.40
2013,08,05,05,30,15.40
2013,08,05,05,31,15.40
2013,08,05,05,32,15.40
2013,08,05,05,33,15.40
2013,08,05,05,34,15.30
2013,08,05,05,35,15.30
2013,08,05,05,36,15.30
2013,08,05,05,37,15.40
2013,08,05,05,38,15.30
2013,08,05,05,39,15.30
2013,08,05,05,40,15.30
2013,08,05,05,41,15.30
2013,08,05,05,42,15.30
2013,08,05,05,43,15.30
2013,08,05,05,44,15.30
2013,08,05,05,45,15.30
2013,08,05,05,46,15.30
2013,08,05,05,47,15.30
2013,08,05,05,48,15.30
2013,08,05,05,49,15.30
2013,08,05,05,50,15.30
2013,08,05,05,51,15.30
2013,08,05,05,52,15.30
2013,08,05,05,53,15.30
2013,08,05,05,54,15.30
2013,08,05,05,55,15.20
2013,08,05,05,56,15.20
2013,08,05,05,57,15.20
2013,08,05,05,58,15.10
2013,08,05,05,59,15.10
2013,08,05,06,00,15.00
2013,08,05,06,01,15.00
2013,08,05,06,02,15.00
2013,08,05,06,03,15.00
2013,08,05,06,04,15.00
2013,08,05,06,05,15.00
2013,08,05,06,06,15.00
2013,08,05,06,07,15.00
2013,08,05,06,08,15.00
2013,08,05,06,09,15.00
2013,08,05,06,10,15.00
2013,08,05,06,11,15.00
2013,08,05,06,12,15.00
2013,08,05,06,13,15.00
2013,08,05,06,14,15.00
2013,08,05,06,15,15.00
2013,08,05,06,16,15.00
2013,08,05,06,17,15.00
2013,08,05,06,18,15.00
2013,08,05,06,19,15.00
2013,08,05,06,20,15.00
2013,08,05,06,21,15.00
2013,08,05,06,22,15.00
2013,08,05,06,23,15.00
2013,08,05,06,24,15.00
2013,08,05,06,25,15.00
2013,08,05,06,26,15.00
2013,08,05,06,27,15.00
2013,08,05,06,28,15.00
2013,08,05,06,29,15.00
2013,08,05,06,30,15.00
2013,08,05,06,31,15.00
2013,08,05,06,32,15.00
2013,08,05,06,33,15.00
2013,08,05,06,34,15.00
2013,08,05,06,35,15.00
2013,08,05,06,36,15.00
2013,08,05,06,37,15.00
2013,08,05,06,38,15.00
2013,08,05,06,39,15.00
2013,08,05,06,40,15.00
2013,08,05,06,41,15.00
2013,08,05,06,42,15.00
2013,08,05,06,43,15.00
2013,08,05,06,44,15.00
2013,08,05,06,45,15.00
2013,08,05,06,46,15.00
2013,08,05,06,47,15.00
2013,08,05,06,48,15.00
2013,08,05,06,49,15.00
2013,08,05,06,50,15.00
2013,08,05,06,51,15.00
2013,08,05,06,52,15.00
2013,08,05,06,53,15.00
2013,08,05,06,54,15.00
2013,08,05,06,55,15.00
2013,08,05,06,56,15.00
2013,08,05,06,57,15.00
2013,08,05,06,58,15.00
2013,08,05,06,59,15.00
2013,08,05,07,00,15.00
2013,08,05,07,01,15.00
2013,08,05,07,02,15.00
2013,08,05,07,03,15.00
2013,08,05,07,04,15.00
2013,08,05,07,05,15.00
2013,08,05,07,06,15.00
2013,08,05,07,07,15.00
2013,08,05,07,08,15.00
2013,08,05,07,09,15.00
2013,08,05,07,10,15.00
2013,08,05,07,11,15.00
2013,08,05,07,12,15.00
2013,08,05,07,13,15.00
2013,08,05,07,14,15.00
2013,08,05,07,15,15.00
2013,08,05,07,16,15.00
2013,08,05,07,17,15.00
2013,08,05,07,18,15.00
2013,08,05,07,19,15.00
2013,08,05,07,20,15.10
2013,08,05,07,21,15.10
2013,08,05,07,22,15.10
2013,08,05,07,23,15.20
2013,08,05,07,24,15.20
2013,08,05,07,25,15.20
2013,08,05,07,26,15.20
2013,08,05,07,27,15.20
2013,08,05,07,28,15.30
2013,08,05,07,29,15.30
2013,08,05,07,30,15.30
2013,08,05,07,31,15.30
2013,08,05,07,32,15.30
2013,08,05,07,33,15.40
2013,08,05,07,34,15.40
2013,08,05,07,35,15.40
2013,08,05,07,36,15.40
2013,08,05,07,37,15.40
2013,08,05,07,38,15.40
2013,08,05,07,39,15.50
2013,08,05,07,40,15.50
2013,08,05,07,41,15.60
2013,08,05,07,42,15.60
2013,08,05,07,43,15.60
2013,08,05,07,44,15.60
2013,08,05,07,45,15.70
2013,08,05,07,46,15.70
2013,08,05,07,47,15.70
2013,08,05,07,48,15.80
2013,08,05,07,49,15.80
2013,08,05,07,50,15.80
2013,08,05,07,51,15.80
2013,08,05,07,52,15.80
2013,08,05,07,53,15.90
2013,08,05,07,54,15.90
2013,08,05,07,55,15.90
2013,08,05,07,56,15.90
2013,08,05,07,57,16.00
2013,08,05,07,58,16.00
2013,08,05,07,59,16.00
2013,08,05,08,00,16.10
2013,08,05,08,01,16.10
2013,08,05,08,02,16.10
2013,08,05,08,03,16.10
2013,08,05,08,04,16.10
2013,08,05,08,05,16.10
2013,08,05,08,06,16.20
2013,08,05,08,07,16.20
2013,08,05,08,08,16.20
2013,08,05,08,09,16.20
2013,08,05,08,10,16.20
2013,08,05,08,11,16.30
2013,08,05,08,12,16.30
2013,08,05,08,13,16.30
2013,08,05,08,14,16.30
2013,08,05,08,15,16.40
2013,08,05,08,16,16.40
2013,08,05,08,17,16.40
2013,08,05,08,18,16.50
2013,08,05,08,19,16.50
2013,08,05,08,20,16.50
2013,08,05,08,21,16.60
2013,08,05,08,22,16.60
2013,08,05,08,23,16.60
2013,08,05,08,24,16.70
2013,08,05,08,25,16.70
2013,08,05,08,26,16.70
2013,08,05,08,27,16.80
2013,08,05,08,28,16.80
2013,08,05,08,29,16.80
2013,08,05,08,30,16.90
2013,08,05,08,31,16.90
2013,08,05,08,32,17.00
2013,08,05,08,33,17.00
2013,08,05,08,34,17.10
2013,08,05,08,35,17.10
2013,08,05,08,36,17.20
2013,08,05,08,37,17.30
2013,08,05,08,38,17.40
2013,08,05,08,39,17.40
2013,08,05,08,40,17.50
2013,08,05,08,41,17.60
2013,08,05,08,42,17.60
2013,08,05,08,43,17.70
2013,08,05,08,44,17.70
2013,08,05,08,45,17.80
2013,08,05,08,46,17.90
2013,08,05,08,47,18.00
2013,08,05,08,48,18.00
2013,08,05,08,49,18.10
2013,08,05,08,50,18.20
2013,08,05,08,51,18.20
2013,08,05,08,52,18.30
2013,08,05,08,53,18.40
2013,08,05,08,54,18.50
2013,08,05,08,55,18.60
2013,08,05,08,56,18.70
2013,08,05,08,57,18.80
2013,08,05,08,58,19.00
2013,08,05,08,59,19.10
2013,08,05,09,00,19.20
2013,08,05,09,01,19.30
2013,08,05,09,02,19.40
2013,08,05,09,03,19.50
2013,08,05,09,04,19.70
2013,08,05,09,05,19.80
2013,08,05,09,06,19.90
2013,08,05,09,07,20.00
2013,08,05,09,08,20.00
2013,08,05,09,09,20.10
2013,08,05,09,10,20.10
2013,08,05,09,11,20.20
2013,08,05,09,12,20.20
2013,08,05,09,13,20.20
2013,08,05,09,14,20.20
2013,08,05,09,15,20.30
2013,08,05,09,16,20.30
2013,08,05,09,17,20.30
2013,08,05,09,18,20.40
2013,08,05,09,19,20.40
2013,08,05,09,20,20.50
2013,08,05,09,21,20.60
2013,08,05,09,22,20.70
2013,08,05,09,23,20.80
2013,08,05,09,24,20.80
2013,08,05,09,25,20.90
2013,08,05,09,26,21.00
2013,08,05,09,27,21.10
2013,08,05,09,28,21.20
2013,08,05,09,29,21.30
2013,08,05,09,30,21.30
2013,08,05,09,31,21.40
2013,08,05,09,32,21.40
2013,08,05,09,33,21.50
2013,08,05,09,34,21.60
2013,08,05,09,35,21.70
2013,08,05,09,36,21.70
2013,08,05,09,37,21.70
2013,08,05,09,38,21.80
2013,08,05,09,39,21.80
2013,08,05,09,40,21.80
2013,08,05,09,41,21.90
2013,08,05,09,42,22.00
2013,08,05,09,43,22.00
2013,08,05,09,44,22.10
2013,08,05,09,45,22.10
2013,08,05,09,46,22.20
2013,08,05,09,47,22.20
2013,08,05,09,48,22.20
2013,08,05,09,49,22.20
2013,08,05,09,50,22.30
2013,08,05,09,51,22.20
2013,08,05,09,52,22.20
2013,08,05,09,53,22.20
2013,08,05,09,54,22.10
2013,08,05,09,55,22.10
2013,08,05,09,56,22.10
2013,08,05,09,57,22.10
2013,08,05,09,58,22.10
2013,08,05,09,59,22.20
2013,08,05,10,00,22.20
2013,08,05,10,01,22.20
2013,08,05,10,02,22.20
2013,08,05,10,03,22.20
2013,08,05,10,04,22.20
2013,08,05,10,05,22.20
2013,08,05,10,06,22.10
2013,08,05,10,07,22.10
2013,08,05,10,08,22.10
2013,08,05,10,09,22.10
2013,08,05,10,10,22.20
2013,08,05,10,11,22.20
2013,08,05,10,12,22.30
2013,08,05,10,13,22.30
2013,08,05,10,14,22.30
2013,08,05,10,15,22.40
2013,08,05,10,16,22.40
2013,08,05,10,17,22.40
2013,08,05,10,18,22.40
2013,08,05,10,19,22.50
2013,08,05,10,20,22.50
2013,08,05,10,21,22.50
2013,08,05,10,22,22.60
2013,08,05,10,23,22.60
2013,08,05,10,24,22.60
2013,08,05,10,25,22.70
2013,08,05,10,26,22.70
2013,08,05,10,27,22.70
2013,08,05,10,28,22.80
2013,08,05,10,29,22.90
2013,08,05,10,30,22.90
2013,08,05,10,31,22.90
2013,08,05,10,32,23.00
2013,08,05,10,33,23.00
2013,08,05,10,34,23.00
2013,08,05,10,35,23.10
2013,08,05,10,36,23.10
2013,08,05,10,37,23.10
2013,08,05,10,38,23.10
2013,08,05,10,39,23.20
2013,08,05,10,40,23.20
2013,08,05,10,41,23.20
2013,08,05,10,42,23.20
2013,08,05,10,43,23.30
2013,08,05,10,44,23.30
2013,08,05,10,45,23.30
2013,08,05,10,46,23.30
2013,08,05,10,47,23.40
2013,08,05,10,48,23.40
2013,08,05,10,49,23.40
2013,08,05,10,50,23.50
2013,08,05,10,51,23.50
2013,08,05,10,52,23.60
2013,08,05,10,53,23.60
2013,08,05,10,54,23.60
2013,08,05,10,55,23.60
2013,08,05,10,56,23.60
2013,08,05,10,57,23.60
2013,08,05,10,58,23.60
2013,08,05,10,59,23.60
2013,08,05,11,00,23.60
2013,08,05,11,01,23.60
2013,08,05,11,02,23.70
2013,08,05,11,03,23.70
2013,08,05,11,04,23.70
2013,08,05,11,05,23.80
2013,08,05,11,06,23.80
2013,08,05,11,07,23.70
2013,08,05,11,08,23.70
2013,08,05,11,09,23.80
2013,08,05,11,10,23.80
2013,08,05,11,11,23.80
2013,08,05,11,12,23.80
2013,08,05,11,13,23.80
2013,08,05,11,14,23.80
2013,08,05,11,15,23.80
2013,08,05,11,16,23.80
2013,08,05,11,17,23.80
2013,08,05,11,18,23.80
2013,08,05,11,19,23.90
2013,08,05,11,20,23.90
2013,08,05,11,21,24.00
2013,08,05,11,22,24.00
2013,08,05,11,23,24.10
2013,08,05,11,24,24.20
2013,08,05,11,25,24.20
2013,08,05,11,26,24.30
2013,08,05,11,27,24.30
2013,08,05,11,28,24.40
2013,08,05,11,29,24.50
2013,08,05,11,30,24.60
2013,08,05,11,31,24.70
2013,08,05,11,32,24.70
2013,08,05,11,33,24.80
2013,08,05,11,34,24.80
2013,08,05,11,35,24.90
2013,08,05,11,36,24.80
2013,08,05,11,37,24.80
2013,08,05,11,38,24.80
2013,08,05,11,39,24.80
2013,08,05,11,40,24.80
2013,08,05,11,41,24.80
2013,08,05,11,42,24.80
2013,08,05,11,43,24.90
2013,08,05,11,44,24.90
2013,08,05,11,45,24.90
2013,08,05,11,46,25.00
2013,08,05,11,47,25.00
2013,08,05,11,48,25.10
2013,08,05,11,49,25.10
2013,08,05,11,50,25.10
2013,08,05,11,51,25.20
2013,08,05,11,52,25.20
2013,08,05,11,53,25.20
2013,08,05,11,54,25.20
2013,08,05,11,55,25.20
2013,08,05,11,56,25.30
2013,08,05,11,57,25.20
2013,08,05,11,58,25.20
2013,08,05,11,59,25.00
2013,08,05,12,00,24.90
2013,08,05,12,01,24.80
2013,08,05,12,02,24.80
2013,08,05,12,03,24.80
2013,08,05,12,04,24.80
2013,08,05,12,05,24.80
2013,08,05,12,06,24.90
2013,08,05,12,07,24.90
2013,08,05,12,08,24.90
2013,08,05,12,09,24.90
2013,08,05,12,10,24.90
2013,08,05,12,11,25.00
2013,08,05,12,12,25.00
2013,08,05,12,13,25.00
2013,08,05,12,14,25.10
2013,08,05,12,15,25.10
2013,08,05,12,16,25.20
2013,08,05,12,17,25.20
2013,08,05,12,18,25.30
2013,08,05,12,19,25.30
2013,08,05,12,20,25.30
2013,08,05,12,21,25.30
2013,08,05,12,22,25.40
2013,08,05,12,23,25.40
2013,08,05,12,24,25.50
2013,08,05,12,25,25.50
2013,08,05,12,26,25.60
2013,08,05,12,27,25.60
2013,08,05,12,28,25.70
2013,08,05,12,29,25.70
2013,08,05,12,30,25.80
2013,08,05,12,31,25.80
2013,08,05,12,32,25.80
2013,08,05,12,33,25.80
2013,08,05,12,34,25.80
2013,08,05,12,35,25.80
2013,08,05,12,36,25.80
2013,08,05,12,37,25.80
2013,08,05,12,38,25.80
2013,08,05,12,39,25.70
2013,08,05,12,40,25.70
2013,08,05,12,41,25.60
2013,08,05,12,42,25.60
2013,08,05,12,43,25.60
2013,08,05,12,44,25.50
2013,08,05,12,45,25.50
2013,08,05,12,46,25.50
2013,08,05,12,47,25.40
2013,08,05,12,48,25.40
2013,08,05,12,49,25.40
2013,08,05,12,50,25.40
2013,08,05,12,51,25.50
2013,08,05,12,52,25.60
2013,08,05,12,53,25.60
2013,08,05,12,54,25.60
2013,08,05,12,55,25.70
2013,08,05,12,56,25.70
2013,08,05,12,57,25.80
2013,08,05,12,58,25.80
2013,08,05,12,59,25.80
2013,08,05,13,00,25.70
2013,08,05,13,01,25.50
2013,08,05,13,02,25.40
2013,08,05,13,03,25.30
2013,08,05,13,04,25.30
2013,08,05,13,05,25.30
2013,08,05,13,06,25.30
2013,08,05,13,07,25.20
2013,08,05,13,08,25.20
2013,08,05,13,09,25.10
2013,08,05,13,10,25.20
2013,08,05,13,11,25.20
2013,08,05,13,12,25.30
2013,08,05,13,13,25.30
2013,08,05,13,14,25.30
2013,08,05,13,15,25.30
2013,08,05,13,16,25.40
2013,08,05,13,17,25.30
2013,08,05,13,18,25.30
2013,08,05,13,19,25.30
2013,08,05,13,20,25.30
2013,08,05,13,21,25.30
2013,08,05,13,22,25.40
2013,08,05,13,23,25.40
2013,08,05,13,24,25.40
2013,08,05,13,25,25.40
2013,08,05,13,26,25.40
2013,08,05,13,27,25.40
2013,08,05,13,28,25.40
2013,08,05,13,29,25.40
2013,08,05,13,30,25.30
2013,08,05,13,31,25.30
2013,08,05,13,32,25.30
2013,08,05,13,33,25.30
2013,08,05,13,34,25.40
2013,08,05,13,35,25.40
2013,08,05,13,36,25.40
2013,08,05,13,37,25.40
2013,08,05,13,38,25.40
2013,08,05,13,39,25.40
2013,08,05,13,40,25.50
2013,08,05,13,41,25.50
2013,08,05,13,42,25.60
2013,08,05,13,43,25.70
2013,08,05,13,44,25.70
2013,08,05,13,45,25.70
2013,08,05,13,46,25.70
2013,08,05,13,47,25.70
2013,08,05,13,48,25.70
2013,08,05,13,49,25.70
2013,08,05,13,50,25.70
2013,08,05,13,51,25.80
2013,08,05,13,52,25.80
2013,08,05,13,53,25.80
2013,08,05,13,54,25.80
2013,08,05,13,55,25.80
2013,08,05,13,56,25.80
2013,08,05,13,57,25.80
2013,08,05,13,58,25.80
2013,08,05,13,59,25.80
2013,08,05,14,00,25.80
2013,08,05,14,01,25.90
2013,08,05,14,02,25.90
2013,08,05,14,03,25.90
2013,08,05,14,04,26.00
2013,08,05,14,05,26.10
2013,08,05,14,06,26.20
2013,08,05,14,07,26.20
2013,08,05,14,08,26.30
2013,08,05,14,09,26.40
2013,08,05,14,10,26.50
2013,08,05,14,11,26.60
2013,08,05,14,12,26.80
2013,08,05,14,13,26.80
2013,08,05,14,14,26.90
2013,08,05,14,15,27.00
2013,08,05,14,16,27.00
2013,08,05,14,17,27.10
2013,08,05,14,18,27.10
2013,08,05,14,19,27.10
2013,08,05,14,20,27.20
2013,08,05,14,21,27.10
2013,08,05,14,22,27.10
2013,08,05,14,23,27.10
2013,08,05,14,24,27.10
2013,08,05,14,25,27.10
2013,08,05,14,26,27.20
2013,08,05,14,27,27.20
2013,08,05,14,28,27.20
2013,08,05,14,29,27.20
2013,08,05,14,30,27.20
2013,08,05,14,31,27.10
2013,08,05,14,32,27.00
2013,08,05,14,33,26.90
2013,08,05,14,34,26.80
2013,08,05,14,35,26.80
2013,08,05,14,36,26.80
2013,08,05,14,37,26.80
2013,08,05,14,38,26.80
2013,08,05,14,39,26.80
2013,08,05,14,40,26.80
2013,08,05,14,41,26.80
2013,08,05,14,42,26.80
2013,08,05,14,43,26.80
2013,08,05,14,44,26.90
2013,08,05,14,45,26.90
2013,08,05,14,46,26.90
2013,08,05,14,47,26.80
2013,08,05,14,48,26.80
2013,08,05,14,49,26.70
2013,08,05,14,50,26.70
2013,08,05,14,51,26.70
2013,08,05,14,52,26.80
2013,08,05,14,53,26.80
2013,08,05,14,54,26.80
2013,08,05,14,55,26.80
2013,08,05,14,56,26.70
2013,08,05,14,57,26.70
2013,08,05,14,58,26.70
2013,08,05,14,59,26.60
2013,08,05,15,00,26.60
2013,08,05,15,01,26.50
2013,08,05,15,02,26.50
2013,08,05,15,03,26.50
2013,08,05,15,04,26.50
2013,08,05,15,05,26.60
2013,08,05,15,06,26.60
2013,08,05,15,07,26.60
2013,08,05,15,08,26.60
2013,08,05,15,09,26.70
2013,08,05,15,10,26.80
2013,08,05,15,11,26.80
2013,08,05,15,12,26.90
2013,08,05,15,13,27.00
2013,08,05,15,14,27.00
2013,08,05,15,15,27.10
2013,08,05,15,16,27.10
2013,08,05,15,17,27.10
2013,08,05,15,18,27.20
2013,08,05,15,19,27.10
2013,08,05,15,20,27.00
2013,08,05,15,21,27.00
2013,08,05,15,22,27.00
2013,08,05,15,23,26.90
2013,08,05,15,24,26.90
2013,08,05,15,25,26.80
2013,08,05,15,26,26.80
2013,08,05,15,27,26.70
2013,08,05,15,28,26.70
2013,08,05,15,29,26.70
2013,08,05,15,30,26.60
2013,08,05,15,31,26.60
2013,08,05,15,32,26.70
2013,08,05,15,33,26.70
2013,08,05,15,34,26.80
2013,08,05,15,35,26.80
2013,08,05,15,36,26.80
2013,08,05,15,37,26.90
2013,08,05,15,38,26.90
2013,08,05,15,39,26.90
2013,08,05,15,40,27.00
2013,08,05,15,41,27.00
2013,08,05,15,42,27.00
2013,08,05,15,43,27.00
2013,08,05,15,44,27.10
2013,08,05,15,45,27.10
2013,08,05,15,46,27.10
2013,08,05,15,47,27.10
2013,08,05,15,48,27.10
2013,08,05,15,49,27.10
2013,08,05,15,50,27.10
2013,08,05,15,51,27.00
2013,08,05,15,52,27.00
2013,08,05,15,53,26.90
2013,08,05,15,54,26.90
2013,08,05,15,55,26.90
2013,08,05,15,56,26.90
2013,08,05,15,57,26.90
2013,08,05,15,58,26.90
2013,08,05,15,59,26.90
2013,08,05,16,00,26.80
2013,08,05,16,01,26.80
2013,08,05,16,02,26.80
2013,08,05,16,03,26.80
2013,08,05,16,04,26.80
2013,08,05,16,05,26.80
2013,08,05,16,06,26.80
2013,08,05,16,07,26.80
2013,08,05,16,08,26.80
2013,08,05,16,09,26.80
2013,08,05,16,10,26.90
2013,08,05,16,11,26.90
2013,08,05,16,12,26.90
2013,08,05,16,13,26.90
2013,08,05,16,14,26.90
2013,08,05,16,15,26.90
2013,08,05,16,16,26.90
2013,08,05,16,17,26.90
2013,08,05,16,18,26.90
2013,08,05,16,19,26.90
2013,08,05,16,20,26.80
2013,08,05,16,21,26.80
2013,08,05,16,22,26.80
2013,08,05,16,23,26.70
2013,08,05,16,24,26.70
2013,08,05,16,25,26.80
2013,08,05,16,26,26.80
2013,08,05,16,27,26.90
2013,08,05,16,28,26.90
2013,08,05,16,29,26.90
2013,08,05,16,30,26.90
2013,08,05,16,31,26.90
2013,08,05,16,32,26.90
2013,08,05,16,33,26.90
2013,08,05,16,34,26.80
2013,08,05,16,35,26.80
2013,08,05,16,36,26.70
2013,08,05,16,37,26.60
2013,08,05,16,38,26.60
2013,08,05,16,39,26.60
2013,08,05,16,40,26.50
2013,08,05,16,41,26.50
2013,08,05,16,42,26.50
2013,08,05,16,43,26.60
2013,08,05,16,44,26.70
2013,08,05,16,45,26.80
2013,08,05,16,46,26.80
2013,08,05,16,47,26.90
2013,08,05,16,48,26.90
2013,08,05,16,49,26.90
2013,08,05,16,50,27.00
2013,08,05,16,51,27.00
2013,08,05,16,52,27.00
2013,08,05,16,53,27.10
2013,08,05,16,54,27.20
2013,08,05,16,55,27.20
2013,08,05,16,56,27.20
2013,08,05,16,57,27.20
2013,08,05,16,58,27.30
2013,08,05,16,59,27.20
2013,08,05,17,00,27.20
2013,08,05,17,01,27.20
2013,08,05,17,02,27.10
2013,08,05,17,03,27.10
2013,08,05,17,04,27.10
2013,08,05,17,05,27.10
2013,08,05,17,06,27.00
2013,08,05,17,07,26.90
2013,08,05,17,08,26.90
2013,08,05,17,09,26.80
2013,08,05,17,10,26.70
2013,08,05,17,11,26.70
2013,08,05,17,12,26.60
2013,08,05,17,13,26.60
2013,08,05,17,14,26.50
2013,08,05,17,15,26.50
2013,08,05,17,16,26.50
2013,08,05,17,17,26.50
2013,08,05,17,18,26.50
2013,08,05,17,19,26.50